Flight Information

DEPARTURE
NORTH BEND, OR
Elevation:
17
Runways:
13/31 - 4470x150 - ASPH-G
5/23 - 5980x150 - ASPH-G
Ground:
127.1
Tower:
NORTH BEND TOWER 118.45
DESTINATION
,
Elevation:
TPA:
1000 (est.)


6847.4 NM65° True-18° Var46° HDG

Flight Plan:
(click to file on line)

1. Type
2. Aircraft Identification
3. Aircraft Type / Special Equipment
4. True Airspeed
kts
5. Departure Airport
(ICAO code)
6. Arriving Airport
(ICAO code)
7. Cruising Altitude
ft
8. Alternate Airport
(ICAO code)
9. Route of Flight
10. Remarks


00:00:00 Departure ATIS: Destination ATIS:

Clearance Limit:
Route:
Altitude: Expect in minutes
Frequency:
Transponder: (7500 Hijack / 7600 Lost Comms / 7700 Emergency)


KOTH 030856Z AUTO 34004KT 10SM OVC009 14/12 A3007 RMK AO2 SLP183 T01390122 51000
Time: 2022-10-03T08:56:00Z
1664787573
Winds: 340 @ 4 kts
Visibility: 10.0 sm
Clouds (AGL): OVC 900
Temperature: 13.9 C
Dew Point: 12.2 C
Pressure: 30.070866 in Hgbr


Notes:

Data extracted from FAA Digital Chart Supplement. Effective: 0901Z Thursday, 27 JAN 2022 to 0900z Thursday, 24 MAR 2022
Current ATIS data is provided courtisy of PilotEdge.